Le Mars, IA

1:10 AM CDT on September 18, 2019 (GMT -0500)
Le Mars Municipal

Weather History for KLRJ - July, 2019

Change the Weather History Date:

Saturday, July 20, 2019

  Actual Average Record
Temperature  
Mean Temperature 74 °F -  
Max Temperature 82 °F 87 °F 103 °F (1974)
Min Temperature 66 °F 63 °F 48 °F (1970)
Cooling Degree Days 9    
Growing Degree Days 24 (Base 50)    
Moisture  
Dew Point 70 °F    
Average Humidity 85    
Maximum Humidity 100    
Minimum Humidity 69    
Precipitation  
Precipitation 0.01 in - - ()
Sea Level Pressure  
Sea Level Pressure 29.84 in    
Wind  
Wind Speed 8 mph (NE)    
Max Wind Speed 34 mph    
Max Gust Speed 53 mph    
Visibility 10 miles    
Events Rain    
Averages and records for this station are not official NWS values.
T = Trace of Precipitation, MM = Missing Value Source: NWS Daily Summary

Daily Weather History Graph

Daily Weather History Graph

Search for Another Location

Airport or City:

Astronomy

Jul. 20, 2019 Rise Set
Actual Time 6:04 AM CDT 8:57 PM CDT
Civil Twilight 5:30 AM CDT 9:30 PM CDT
Nautical Twilight 4:48 AM CDT 10:13 PM CDT
Astronomical Twilight 3:58 AM CDT 11:02 PM CDT
Moon 11:21 PM CDT (7/20) 9:32 AM CDT (7/20)
Length of Visible Light 16h 00m
Length of Day
14h 53m
Waning Gibbous, 87% of the Moon is Illuminated
Jul 20
Waning Gibbous
Jul 24
Last Quarter
Jul 31
New
Aug 7
First Quarter
Aug 15
Full

Hourly Weather History & Observations

Time (CDT) Temp. Heat Index Dew Point Humidity Pressure Visibility Wind Dir Wind Speed Gust Speed Precip Events Conditions
12:15 AM 82.4 °F 94.0 °F 80.6 °F 94% 29.73 in 10.0 mi Calm Calm - N/A   Clear
12:35 AM 82.4 °F 94.0 °F 80.6 °F 94% 29.72 in 10.0 mi Calm Calm - N/A   Clear
12:55 AM 82.4 °F 94.0 °F 80.6 °F 94% 29.72 in 10.0 mi SSE 4.6 mph - N/A   Clear
1:15 AM 82.4 °F 94.0 °F 80.6 °F 94% 29.72 in 10.0 mi SSE 5.8 mph - N/A   Clear
1:35 AM 82.4 °F 94.0 °F 80.6 °F 94% 29.72 in 10.0 mi SSE 3.5 mph - N/A   Clear
1:55 AM 82.4 °F 94.0 °F 80.6 °F 94% 29.72 in 10.0 mi Calm Calm - N/A   Clear
2:15 AM 80.6 °F 89.3 °F 80.6 °F 100% 29.73 in 10.0 mi NE 3.5 mph - N/A   Clear
2:35 AM 82.4 °F 94.0 °F 80.6 °F 94% 29.72 in 10.0 mi Calm Calm - N/A   Clear
2:55 AM 80.6 °F 88.1 °F 78.8 °F 94% 29.72 in 10.0 mi SSE 4.6 mph - N/A   Clear
3:15 AM 80.6 °F 88.1 °F 78.8 °F 94% 29.72 in 10.0 mi SSE 6.9 mph - N/A   Clear
3:35 AM 80.6 °F 88.1 °F 78.8 °F 94% 29.71 in 10.0 mi SSE 13.8 mph - N/A   Clear
3:55 AM 80.6 °F 88.1 °F 78.8 °F 94% 29.70 in 10.0 mi SSE 15.0 mph - N/A   Clear
4:15 AM 80.6 °F 88.1 °F 78.8 °F 94% 29.70 in 10.0 mi SE 12.7 mph - N/A   Clear
4:35 AM 80.6 °F 88.1 °F 78.8 °F 94% 29.70 in 10.0 mi SSE 12.7 mph - N/A   Clear
4:55 AM 80.6 °F 87.1 °F 77.0 °F 89% 29.70 in 10.0 mi SSE 11.5 mph 17.3 mph N/A   Clear
5:15 AM 78.8 °F - 77.0 °F 94% 29.71 in 10.0 mi South 8.1 mph - N/A   Clear
5:35 AM 78.8 °F - 77.0 °F 94% 29.71 in 10.0 mi South 6.9 mph - N/A   Clear
5:55 AM 78.8 °F - 77.0 °F 94% 29.71 in 10.0 mi South 3.5 mph - N/A   Clear
6:15 AM 77.0 °F - 77.0 °F 100% 29.70 in 10.0 mi South 5.8 mph - N/A   Clear
6:35 AM 77.0 °F - 75.2 °F 94% 29.69 in 10.0 mi South 6.9 mph - N/A   Clear
6:55 AM 77.0 °F - 75.2 °F 94% 29.70 in 10.0 mi South 5.8 mph - N/A   Clear
7:15 AM 77.0 °F - 75.2 °F 94% 29.71 in 10.0 mi Calm Calm - N/A   Clear
7:35 AM 78.8 °F - 75.2 °F 89% 29.72 in 10.0 mi Calm Calm - N/A   Clear
7:55 AM 78.8 °F - 73.4 °F 83% 29.73 in 10.0 mi NE 3.5 mph - N/A   Clear
8:15 AM 80.6 °F 85.4 °F 73.4 °F 79% 29.75 in 10.0 mi NNE 4.6 mph - N/A   Clear
8:35 AM 80.6 °F 86.2 °F 75.2 °F 84% 29.76 in 10.0 mi NNE 5.8 mph - N/A   Clear
8:55 AM 80.6 °F 86.2 °F 75.2 °F 84% 29.81 in 10.0 mi NNW 5.8 mph - N/A   Mostly Cloudy
9:15 AM 80.6 °F 86.2 °F 75.2 °F 84% 29.84 in 10.0 mi NNW 8.1 mph - N/A   Overcast
9:35 AM 68.0 °F - 62.6 °F 83% 29.87 in 5.0 mi NNE 34.5 mph 52.9 mph N/A   Overcast
9:55 AM 66.2 °F - 64.4 °F 94% 29.84 in 9.0 mi NE 25.3 mph 36.8 mph 0.01 in   Scattered Clouds
10:15 AM 66.2 °F - 64.4 °F 94% 29.82 in 10.0 mi NE 28.8 mph 40.3 mph N/A   Clear
10:35 AM 66.2 °F - 62.6 °F 88% 29.84 in 10.0 mi NE 28.8 mph 35.7 mph N/A   Clear
10:55 AM 69.8 °F - 62.6 °F 78% 29.85 in 10.0 mi NE 24.2 mph 32.2 mph N/A   Clear
11:15 AM 69.8 °F - 62.6 °F 78% 29.89 in 10.0 mi NNE 24.2 mph 32.2 mph N/A   Partly Cloudy
11:35 AM 68.0 °F - 60.8 °F 78% 29.86 in 10.0 mi ENE 21.9 mph 28.8 mph N/A   Scattered Clouds
11:55 AM 68.0 °F - 60.8 °F 78% 29.86 in 10.0 mi NE 13.8 mph 24.2 mph N/A   Partly Cloudy
12:15 PM 68.0 °F - 60.8 °F 78% 29.89 in 10.0 mi ENE 9.2 mph 21.9 mph N/A   Clear
12:35 PM 69.8 °F - 60.8 °F 73% 29.90 in 10.0 mi ENE 9.2 mph - N/A   Clear
12:55 PM 68.0 °F - 60.8 °F 78% 29.91 in 10.0 mi North 12.7 mph 24.2 mph N/A   Scattered Clouds
1:15 PM 68.0 °F - 60.8 °F 78% 29.84 in 10.0 mi NE 13.8 mph - N/A   Mostly Cloudy
1:35 PM 68.0 °F - 60.8 °F 78% 29.84 in 10.0 mi East 8.1 mph 25.3 mph N/A   Partly Cloudy
1:55 PM 69.8 °F - 62.6 °F 78% 29.86 in 10.0 mi ESE 12.7 mph 20.7 mph N/A   Clear
2:15 PM 71.6 °F - 64.4 °F 78% 29.88 in 10.0 mi SE 11.5 mph 20.7 mph N/A   Scattered Clouds
2:35 PM 69.8 °F - 66.2 °F 88% 29.86 in 9.0 mi ENE 10.4 mph - N/A Rain Light Rain
2:55 PM 69.8 °F - 66.2 °F 88% 29.82 in 10.0 mi NE 17.3 mph 31.1 mph N/A   Clear
3:15 PM 73.4 °F - 66.2 °F 78% 29.94 in 10.0 mi Calm Calm 11.5 mph N/A   Partly Cloudy
3:35 PM 77.0 °F - 66.2 °F 69% 29.95 in 10.0 mi Variable 4.6 mph - N/A   Partly Cloudy
3:55 PM 77.0 °F - 66.2 °F 69% 29.92 in 10.0 mi NNE 11.5 mph - N/A   Clear
4:15 PM 75.2 °F - 66.2 °F 73% 29.94 in 10.0 mi North 10.4 mph 17.3 mph N/A   Clear
4:35 PM 77.0 °F - 66.2 °F 69% 29.93 in 10.0 mi North 11.5 mph - N/A   Clear
4:55 PM 77.0 °F - 66.2 °F 69% 29.91 in 10.0 mi NE 12.7 mph 19.6 mph N/A   Clear
5:15 PM 77.0 °F - 66.2 °F 69% 29.89 in 10.0 mi NE 15.0 mph 21.9 mph N/A   Clear
5:35 PM 77.0 °F - 66.2 °F 69% 29.91 in 10.0 mi NNE 15.0 mph - N/A   Clear
5:55 PM 75.2 °F - 66.2 °F 73% 29.92 in 10.0 mi NNE 13.8 mph - N/A   Partly Cloudy
6:15 PM 75.2 °F - 66.2 °F 73% 29.91 in 10.0 mi NNE 16.1 mph - N/A   Partly Cloudy
6:35 PM 75.2 °F - 66.2 °F 73% 29.91 in 10.0 mi North 17.3 mph - N/A   Partly Cloudy
6:55 PM 75.2 °F - 66.2 °F 73% 29.91 in 10.0 mi North 16.1 mph - N/A   Clear
7:15 PM 75.2 °F - 66.2 °F 73% 29.92 in 10.0 mi NNE 13.8 mph - N/A   Clear
7:35 PM 73.4 °F - 66.2 °F 78% 29.93 in 10.0 mi North 15.0 mph - N/A   Clear
7:55 PM 73.4 °F - 68.0 °F 83% 29.94 in 10.0 mi NNE 13.8 mph - N/A   Clear
8:15 PM 73.4 °F - 66.2 °F 78% 29.94 in 10.0 mi NNE 11.5 mph - N/A   Clear
8:35 PM 71.6 °F - 68.0 °F 88% 29.95 in 10.0 mi NNE 9.2 mph - N/A   Clear
8:55 PM 71.6 °F - 68.0 °F 88% 29.95 in 10.0 mi NNE 6.9 mph - N/A   Clear
9:15 PM 71.6 °F - 68.0 °F 88% 29.95 in 10.0 mi NNE 10.4 mph - N/A   Mostly Cloudy
9:35 PM 71.6 °F - 68.0 °F 88% 29.96 in 10.0 mi NNE 10.4 mph - N/A   Scattered Clouds
9:55 PM 69.8 °F - 68.0 °F 94% 29.96 in 10.0 mi NNE 9.2 mph - N/A   Mostly Cloudy
10:15 PM 69.8 °F - 68.0 °F 94% 29.96 in 10.0 mi NNE 9.2 mph - N/A   Partly Cloudy
10:35 PM 68.0 °F - 66.2 °F 94% 29.96 in 10.0 mi NNE 9.2 mph - N/A   Scattered Clouds
10:55 PM 68.0 °F - 66.2 °F 94% 29.97 in 10.0 mi NNE 10.4 mph - N/A   Mostly Cloudy
11:15 PM 68.0 °F - 66.2 °F 94% 29.98 in 10.0 mi NNE 9.2 mph - N/A   Partly Cloudy
11:35 PM 68.0 °F - 66.2 °F 94% 29.98 in 10.0 mi NNE 6.9 mph - N/A   Partly Cloudy
11:55 PM 68.0 °F - 66.2 °F 94% 29.98 in 10.0 mi NNE 6.9 mph - N/A   Clear